Flag for France Weather past 2 weeks in Toulouse, France

Now
64 °F

Passing clouds.


Feels Like: 64 °F
Forecast: 51 / 81 °F
Wind: 7 mph from Northwest

Location: Toulouse / Blagnac

Current Time: Sep 1, 2014 at 9:57:08 AM

Latest Report: Sep 1, 2014 at 9:30 AM


Visibility: N/A

Pressure: 30.12 "Hg

Humidity: 73%

Dew point: 55 °F

Location of ToulouseLocation

Historic Weather in Toulouse — Graph

°F

Toulouse temperature yesterday

Maximum temperature yesterday: 79 °F (at 3:30 PM)
Minimum temperature yesterday: 61 °F (at 6:30 AM)
Average temperature yesterday: 70 °F

Past Weeks' High & Low Weather Summary

 TemperatureHumidityPressure
High86 °F (Aug 25, 4:30 PM)100% (Aug 27, 2:30 AM)30.18 "Hg (Aug 27, 2:30 AM)
Low54 °F (Aug 21, 5:30 AM)31% (Aug 25, 5:30 PM)29.86 "Hg (Aug 18, 8:30 PM)
Average68 °F68%30.05 "Hg
* Reported Aug 17 8:00 AM — Sep 1 8:30 AM, Toulouse, Weather by CustomWeather, © 2014

Note: Actual official high and low records may vary slightly from our data, if they occured in-between our weather recording intervals... More about our weather records

Advertising

Toulouse weather history for previous 24 hours

 ConditionsComfort  
Time TempWeatherWind HumidityBarometerVisibility
8:30 AM
Sep 1
61 °FPassing clouds.3 mph88%30.15 "HgN/A
8:00 AM59 °FPassing clouds.3 mph94%30.15 "HgN/A
7:30 AM57 °FClear.1 mph94%30.15 "HgN/A
7:00 AM59 °FClear.5 mph88%30.12 "HgN/A
6:30 AM59 °FClear.3 mph88%30.12 "HgN/A
6:00 AM59 °FClear.2 mph88%30.12 "HgN/A
5:30 AM59 °FClear.5 mph88%30.12 "HgN/A
5:00 AM61 °FClear.5 mph83%30.12 "HgN/A
4:30 AM61 °FClear.3 mph83%30.12 "HgN/A
4:00 AM61 °FClear.5 mph83%30.12 "HgN/A
3:30 AM63 °FClear.5 mph83%30.12 "HgN/A
3:00 AM63 °FClear.3 mph83%30.12 "HgN/A
2:30 AM63 °FClear.7 mph83%30.12 "HgN/A
2:00 AM64 °FClear.7 mph83%30.12 "HgN/A
1:30 AM64 °FClear.7 mph83%30.12 "HgN/A
1:00 AM64 °FClear.7 mph78%30.12 "HgN/A
12:30 AM64 °FClear.8 mph83%30.12 "HgN/A
12:00 AM66 °FClear.8 mph78%30.12 "HgN/A
11:30 PM
Aug 31
66 °FClear.8 mph78%30.12 "HgN/A
11:00 PM68 °FClear.9 mph73%30.12 "HgN/A
10:30 PM70 °FClear.10 mph69%30.12 "HgN/A
10:00 PM70 °FClear.9 mph64%30.12 "HgN/A
9:30 PM70 °FClear.7 mph69%30.09 "HgN/A
9:00 PM72 °FClear.9 mph61%30.09 "HgN/A
8:30 PM73 °FClear.12 mph57%30.09 "HgN/A
8:00 PM75 °FClear.12 mph54%30.07 "HgN/A
7:30 PM77 °FClear.13 mph51%30.07 "HgN/A
7:00 PM79 °FClear.12 mph51%30.07 "HgN/A
6:30 PM79 °FClear.14 mph48%30.07 "HgN/A
6:00 PM79 °FClear.13 mph51%30.09 "HgN/A
5:30 PM79 °FPassing clouds.10 mph48%30.09 "HgN/A
5:00 PM79 °FPassing clouds.12 mph51%30.09 "HgN/A
4:30 PM79 °FPassing clouds.13 mph48%30.09 "HgN/A
4:00 PM79 °FPassing clouds.13 mph48%30.09 "HgN/A
3:30 PM79 °FPassing clouds.10 mph51%30.09 "HgN/A
3:00 PM77 °FPassing clouds.10 mph54%30.12 "HgN/A
2:30 PM77 °FPassing clouds.9 mph54%30.12 "HgN/A
2:00 PM75 °FClear.8 mph57%30.12 "HgN/A
1:30 PM75 °FPassing clouds.7 mph57%30.12 "HgN/A
1:00 PM75 °FPassing clouds.8 mph57%30.12 "HgN/A
12:30 PM73 °FPartly sunny.9 mph57%30.15 "HgN/A
12:00 PM73 °FPartly sunny.8 mph61%30.15 "HgN/A
11:30 AM72 °FPassing clouds.6 mph61%30.15 "HgN/A
11:00 AM72 °FClear.5 mph65%30.15 "HgN/A
10:30 AM70 °FClear.5 mph64%30.15 "HgN/A
10:00 AM68 °FClear.3 mph73%30.15 "HgN/A
9:30 AM66 °FClear.3 mph73%30.15 "HgN/A
9:00 AM64 °FClear.3 mph78%30.12 "HgN/A
Weather by CustomWeather, © 2014

See weather overviewHow to use our weather pages